PSERI SBSI-SBCG

Flight info

Callsign PSERI
Flight time 1h 20m
Altitude 40000
Route DORNO DCT VULAK/N0428F410 UZ63 KOXAL
Aircraft LJ35/M-SGHRWXY/SB1

Departure

Time 2026-05-05 13:54
Airport Presidente João Batista Figueiredo Airport (SBSI)

Arrival

Time 2026-05-05 15:14
Airport Campo Grande Airport (SBCG)
Time Latitude Longitude Altitude Speed Heading
2026-05-05 13:43 -11.87913 -55.58307 1281 ft 0 kts 281°
2026-05-05 13:52 -11.87893 -55.58307 1282 ft 10 kts 21°
2026-05-05 13:52 -11.87838 -55.58365 1280 ft 20 kts 284°
2026-05-05 13:52 -11.87770 -55.58424 1278 ft 4 kts 351°
2026-05-05 13:52 -11.87770 -55.58440 1278 ft 0 kts 197°
2026-05-05 13:53 -11.87794 -55.58447 1278 ft 29 kts 194°
2026-05-05 13:53 -11.88375 -55.58600 1284 ft 140 kts 194°
2026-05-05 13:53 -11.89593 -55.58937 1451 ft 217 kts 195°
2026-05-05 13:54 -11.90970 -55.59383 2949 ft 226 kts 194°
2026-05-05 13:54 -11.92616 -55.59875 3995 ft 254 kts 191°
2026-05-05 13:54 -11.94358 -55.60192 5569 ft 253 kts 180°
2026-05-05 13:54 -11.96085 -55.60332 6748 ft 250 kts 179°
2026-05-05 13:55 -11.97912 -55.60468 7549 ft 283 kts 181°
2026-05-05 13:55 -11.99855 -55.60821 9125 ft 282 kts 191°
2026-05-05 13:55 -12.01788 -55.61154 10633 ft 286 kts 185°
2026-05-05 13:55 -12.03798 -55.61385 11870 ft 295 kts 185°
2026-05-05 13:56 -12.05852 -55.61705 13136 ft 303 kts 188°
2026-05-05 13:56 -12.07957 -55.62080 14336 ft 312 kts 188°
2026-05-05 13:56 -12.10115 -55.62453 15469 ft 317 kts 188°
2026-05-05 13:56 -12.12310 -55.62823 16467 ft 323 kts 187°
2026-05-05 13:57 -12.14557 -55.63200 17467 ft 329 kts 187°
2026-05-05 13:57 -12.16836 -55.63574 18422 ft 335 kts 187°
2026-05-05 13:57 -12.19151 -55.63948 19285 ft 339 kts 187°
2026-05-05 13:57 -12.21489 -55.64339 20178 ft 342 kts 187°
2026-05-05 13:58 -12.23853 -55.64742 21054 ft 347 kts 187°
2026-05-05 13:58 -12.26247 -55.65142 21939 ft 351 kts 187°
2026-05-05 13:58 -12.28669 -55.65548 22798 ft 355 kts 187°
2026-05-05 13:58 -12.31122 -55.65952 23653 ft 359 kts 186°
2026-05-05 13:59 -12.36089 -55.66784 25169 ft 364 kts 187°
2026-05-05 13:59 -12.38598 -55.67207 25965 ft 366 kts 187°
2026-05-05 14:00 -12.43615 -55.68031 27508 ft 370 kts 187°
2026-05-05 14:00 -12.46196 -55.68470 28271 ft 372 kts 188°
2026-05-05 14:00 -12.48727 -55.68897 29034 ft 375 kts 188°
2026-05-05 14:00 -12.51311 -55.69327 29784 ft 377 kts 188°
2026-05-05 14:01 -12.53913 -55.69762 30415 ft 381 kts 188°
2026-05-05 14:01 -12.56543 -55.70203 30932 ft 386 kts 188°
2026-05-05 14:01 -12.59203 -55.70644 31430 ft 391 kts 188°
2026-05-05 14:01 -12.61902 -55.71097 31917 ft 395 kts 189°
2026-05-05 14:02 -12.64637 -55.71557 32395 ft 400 kts 189°
2026-05-05 14:02 -12.67397 -55.72019 32871 ft 404 kts 189°
2026-05-05 14:02 -12.70191 -55.72488 33332 ft 408 kts 189°
2026-05-05 14:02 -12.73004 -55.72959 33781 ft 412 kts 189°
2026-05-05 14:03 -12.75859 -55.73432 34174 ft 417 kts 189°
2026-05-05 14:03 -12.78727 -55.73910 34572 ft 419 kts 190°
2026-05-05 14:03 -12.81613 -55.74399 34959 ft 421 kts 190°
2026-05-05 14:03 -12.84514 -55.74890 35332 ft 424 kts 190°
2026-05-05 14:04 -12.87438 -55.75376 35720 ft 426 kts 190°
2026-05-05 14:04 -12.90373 -55.75865 36102 ft 428 kts 190°
2026-05-05 14:04 -12.93315 -55.76361 36473 ft 430 kts 190°
2026-05-05 14:04 -12.96275 -55.76860 36840 ft 432 kts 190°
2026-05-05 14:05 -12.99245 -55.77357 37197 ft 433 kts 190°
2026-05-05 14:05 -13.02231 -55.77857 37518 ft 435 kts 191°
2026-05-05 14:05 -13.05221 -55.78360 37822 ft 437 kts 191°
2026-05-05 14:05 -13.08228 -55.78866 38115 ft 438 kts 191°
2026-05-05 14:06 -13.11240 -55.79371 38385 ft 440 kts 191°
2026-05-05 14:06 -13.14267 -55.79880 38624 ft 441 kts 191°
2026-05-05 14:06 -13.17301 -55.80390 38835 ft 442 kts 191°
2026-05-05 14:06 -13.20344 -55.80901 38988 ft 444 kts 191°
2026-05-05 14:07 -13.23396 -55.81415 39134 ft 445 kts 191°
2026-05-05 14:07 -13.26451 -55.81928 39252 ft 445 kts 191°
2026-05-05 14:07 -13.32561 -55.82956 39273 ft 445 kts 191°
2026-05-05 14:08 -13.38671 -55.83985 39284 ft 445 kts 191°
2026-05-05 14:08 -13.44738 -55.85007 39300 ft 445 kts 191°
2026-05-05 14:09 -13.50830 -55.86033 39317 ft 438 kts 191°
2026-05-05 14:09 -13.56884 -55.87055 39571 ft 442 kts 191°
2026-05-05 14:10 -13.59923 -55.87567 39720 ft 443 kts 191°
2026-05-05 14:10 -13.62636 -55.88024 39837 ft 444 kts 191°
2026-05-05 14:10 -13.65685 -55.88539 39954 ft 444 kts 191°
2026-05-05 14:10 -13.68734 -55.89055 40058 ft 445 kts 191°
2026-05-05 14:11 -13.74875 -55.90091 40097 ft 448 kts 191°
2026-05-05 14:11 -13.81036 -55.91132 40099 ft 449 kts 191°
2026-05-05 14:12 -13.87215 -55.92176 40102 ft 450 kts 191°
2026-05-05 14:12 -13.93391 -55.93221 40098 ft 450 kts 191°
2026-05-05 14:13 -13.99564 -55.94266 40106 ft 450 kts 191°
2026-05-05 14:13 -14.05739 -55.95311 40107 ft 450 kts 191°
2026-05-05 14:14 -14.11909 -55.96356 40111 ft 449 kts 191°
2026-05-05 14:14 -14.18079 -55.97402 40107 ft 449 kts 192°
2026-05-05 14:15 -14.24244 -55.98448 40109 ft 449 kts 192°
2026-05-05 14:15 -14.30414 -55.99495 40102 ft 449 kts 192°
2026-05-05 14:16 -14.36580 -56.00542 40104 ft 449 kts 192°
2026-05-05 14:16 -14.42740 -56.01588 40102 ft 448 kts 192°
2026-05-05 14:17 -14.48891 -56.02634 40105 ft 448 kts 192°
2026-05-05 14:17 -14.55050 -56.03681 40098 ft 448 kts 192°
2026-05-05 14:18 -14.61204 -56.04729 40097 ft 448 kts 192°
2026-05-05 14:18 -14.67360 -56.05776 40097 ft 448 kts 192°
2026-05-05 14:19 -14.73511 -56.06824 40103 ft 448 kts 192°
2026-05-05 14:19 -14.79664 -56.07874 40105 ft 448 kts 192°
2026-05-05 14:20 -14.85813 -56.08922 40099 ft 448 kts 192°
2026-05-05 14:20 -14.91959 -56.09971 40100 ft 448 kts 192°
2026-05-05 14:21 -14.98111 -56.11004 40100 ft 448 kts 190°
2026-05-05 14:21 -15.04352 -56.11112 40374 ft 446 kts 183°
2026-05-05 14:22 -15.07440 -56.11121 40613 ft 443 kts 184°
2026-05-05 14:22 -15.10513 -56.11136 40858 ft 440 kts 184°
2026-05-05 14:22 -15.13570 -56.11138 41080 ft 439 kts 183°
2026-05-05 14:22 -15.16640 -56.11136 41084 ft 443 kts 184°
2026-05-05 14:23 -15.22729 -56.11146 41082 ft 446 kts 184°
2026-05-05 14:23 -15.28936 -56.11151 41081 ft 447 kts 184°
2026-05-05 14:24 -15.35127 -56.11160 41076 ft 447 kts 184°
2026-05-05 14:24 -15.41345 -56.11166 41076 ft 447 kts 184°
2026-05-05 14:25 -15.47570 -56.11174 41075 ft 447 kts 184°
2026-05-05 14:25 -15.53787 -56.11181 41082 ft 447 kts 184°
2026-05-05 14:26 -15.60006 -56.11188 41078 ft 447 kts 184°
2026-05-05 14:26 -15.66227 -56.10923 41078 ft 452 kts 174°
2026-05-05 14:27 -15.71307 -56.09537 41081 ft 455 kts 168°
2026-05-05 14:27 -15.77406 -56.07756 41081 ft 455 kts 168°
2026-05-05 14:28 -15.83505 -56.05978 41083 ft 455 kts 168°
2026-05-05 14:28 -15.89605 -56.04195 41082 ft 455 kts 168°
2026-05-05 14:29 -15.95698 -56.02416 41084 ft 455 kts 168°
2026-05-05 14:29 -16.01789 -56.00634 41086 ft 454 kts 168°
2026-05-05 14:30 -16.07876 -55.98854 41083 ft 454 kts 168°
2026-05-05 14:30 -16.13959 -55.97073 41080 ft 454 kts 168°
2026-05-05 14:31 -16.20034 -55.95294 41080 ft 454 kts 168°
2026-05-05 14:31 -16.26105 -55.93515 41079 ft 453 kts 169°
2026-05-05 14:32 -16.32170 -55.91735 41075 ft 452 kts 169°
2026-05-05 14:32 -16.38226 -55.89955 41075 ft 452 kts 169°
2026-05-05 14:33 -16.44273 -55.88177 41080 ft 451 kts 169°
2026-05-05 14:33 -16.50315 -55.86400 41074 ft 451 kts 169°
2026-05-05 14:34 -16.56349 -55.84624 41077 ft 450 kts 169°
2026-05-05 14:34 -16.62336 -55.82863 41082 ft 450 kts 169°
2026-05-05 14:35 -16.68354 -55.81091 41074 ft 449 kts 169°
2026-05-05 14:35 -16.74367 -55.79319 41076 ft 449 kts 169°
2026-05-05 14:36 -16.80373 -55.77548 41078 ft 448 kts 169°
2026-05-05 14:36 -16.86374 -55.75778 41075 ft 448 kts 169°
2026-05-05 14:37 -16.92380 -55.74005 41077 ft 448 kts 169°
2026-05-05 14:37 -16.98385 -55.72231 41076 ft 448 kts 169°
2026-05-05 14:38 -17.04386 -55.70457 41077 ft 448 kts 169°
2026-05-05 14:38 -17.10380 -55.68684 41077 ft 448 kts 169°
2026-05-05 14:39 -17.16381 -55.66907 41085 ft 448 kts 169°
2026-05-05 14:39 -17.22375 -55.65132 41084 ft 448 kts 169°
2026-05-05 14:40 -17.28371 -55.63355 41081 ft 448 kts 169°
2026-05-05 14:40 -17.34362 -55.61578 41078 ft 448 kts 169°
2026-05-05 14:41 -17.40352 -55.59800 41082 ft 447 kts 169°
2026-05-05 14:41 -17.46344 -55.58020 41081 ft 447 kts 169°
2026-05-05 14:42 -17.52329 -55.56241 41087 ft 447 kts 169°
2026-05-05 14:42 -17.58313 -55.54461 41087 ft 447 kts 169°
2026-05-05 14:43 -17.64294 -55.52681 41084 ft 447 kts 169°
2026-05-05 14:43 -17.70274 -55.50906 41086 ft 447 kts 169°
2026-05-05 14:44 -17.76218 -55.49145 41085 ft 447 kts 169°
2026-05-05 14:44 -17.82200 -55.47367 41082 ft 447 kts 169°
2026-05-05 14:45 -17.88179 -55.45593 41083 ft 447 kts 169°
2026-05-05 14:45 -17.94162 -55.43812 41083 ft 447 kts 169°
2026-05-05 14:46 -18.00141 -55.42034 41084 ft 447 kts 169°
2026-05-05 14:46 -18.06119 -55.40253 41086 ft 446 kts 169°
2026-05-05 14:47 -18.12091 -55.38474 41087 ft 446 kts 169°
2026-05-05 14:47 -18.18062 -55.36694 41084 ft 446 kts 169°
2026-05-05 14:48 -18.24035 -55.34911 41084 ft 446 kts 169°
2026-05-05 14:48 -18.29997 -55.33131 41083 ft 445 kts 169°
2026-05-05 14:49 -18.35953 -55.31351 41084 ft 445 kts 170°
2026-05-05 14:49 -18.41913 -55.29569 41086 ft 445 kts 170°
2026-05-05 14:50 -18.47869 -55.27786 41086 ft 445 kts 170°
2026-05-05 14:50 -18.53818 -55.26005 41086 ft 444 kts 170°
2026-05-05 14:51 -18.59728 -55.24234 41087 ft 444 kts 170°
2026-05-05 14:51 -18.65670 -55.22451 41089 ft 444 kts 170°
2026-05-05 14:52 -18.71620 -55.20666 41091 ft 444 kts 170°
2026-05-05 14:52 -18.77559 -55.18883 41090 ft 444 kts 170°
2026-05-05 14:53 -18.83493 -55.17098 41090 ft 444 kts 170°
2026-05-05 14:53 -18.89434 -55.15312 41089 ft 444 kts 170°
2026-05-05 14:54 -18.95372 -55.13525 41095 ft 444 kts 170°
2026-05-05 14:54 -19.01307 -55.11736 41093 ft 444 kts 170°
2026-05-05 14:55 -19.07247 -55.09946 41096 ft 444 kts 170°
2026-05-05 14:55 -19.13186 -55.08154 41096 ft 443 kts 170°
2026-05-05 14:56 -19.19119 -55.06363 41098 ft 444 kts 170°
2026-05-05 14:56 -19.25053 -55.04570 41097 ft 443 kts 170°
2026-05-05 14:57 -19.30988 -55.02776 41101 ft 443 kts 170°
2026-05-05 14:57 -19.36914 -55.00973 41106 ft 443 kts 170°
2026-05-05 14:58 -19.42789 -54.99144 40956 ft 431 kts 170°
2026-05-05 14:58 -19.45632 -54.98267 40679 ft 421 kts 170°
2026-05-05 14:58 -19.48442 -54.97597 40258 ft 409 kts 178°
2026-05-05 14:59 -19.51263 -54.97387 39553 ft 406 kts 184°
2026-05-05 14:59 -19.54098 -54.97360 38715 ft 410 kts 185°
2026-05-05 14:59 -19.56966 -54.97284 37664 ft 416 kts 181°
2026-05-05 14:59 -19.59862 -54.96968 36661 ft 418 kts 178°
2026-05-05 15:00 -19.62748 -54.96581 35709 ft 417 kts 178°
2026-05-05 15:00 -19.64653 -54.96390 35093 ft 415 kts 180°
2026-05-05 15:00 -19.68450 -54.96111 33880 ft 411 kts 180°
2026-05-05 15:00 -19.71290 -54.95854 32879 ft 409 kts 178°
2026-05-05 15:01 -19.74119 -54.95556 31901 ft 407 kts 178°
2026-05-05 15:01 -19.76928 -54.95282 30968 ft 405 kts 179°
2026-05-05 15:01 -19.79729 -54.95034 30042 ft 404 kts 179°
2026-05-05 15:01 -19.82528 -54.94779 28985 ft 403 kts 178°
2026-05-05 15:02 -19.85312 -54.94510 27971 ft 401 kts 178°
2026-05-05 15:02 -19.88088 -54.94243 27000 ft 400 kts 178°
2026-05-05 15:02 -19.90855 -54.93985 26056 ft 398 kts 178°
2026-05-05 15:02 -19.93607 -54.93729 25143 ft 397 kts 177°
2026-05-05 15:03 -19.96352 -54.93469 24251 ft 395 kts 177°
2026-05-05 15:03 -19.99076 -54.93211 23335 ft 394 kts 176°
2026-05-05 15:03 -20.01789 -54.92955 22322 ft 392 kts 176°
2026-05-05 15:03 -20.04490 -54.92700 21355 ft 390 kts 176°
2026-05-05 15:04 -20.07179 -54.92448 20405 ft 387 kts 176°
2026-05-05 15:04 -20.09853 -54.92192 19489 ft 384 kts 176°
2026-05-05 15:04 -20.12504 -54.91944 18596 ft 381 kts 175°
2026-05-05 15:04 -20.15137 -54.91695 17621 ft 378 kts 175°
2026-05-05 15:05 -20.20263 -54.91213 15726 ft 373 kts 175°
2026-05-05 15:05 -20.22841 -54.90962 14810 ft 371 kts 175°
2026-05-05 15:05 -20.25409 -54.90719 13914 ft 369 kts 175°
2026-05-05 15:06 -20.27963 -54.90483 12922 ft 368 kts 174°
2026-05-05 15:06 -20.30510 -54.90243 11958 ft 367 kts 174°
2026-05-05 15:06 -20.33043 -54.90001 11110 ft 364 kts 174°
2026-05-05 15:06 -20.35521 -54.89766 10382 ft 360 kts 174°
2026-05-05 15:07 -20.38000 -54.89534 9619 ft 355 kts 174°
2026-05-05 15:07 -20.40457 -54.89297 8814 ft 354 kts 174°
2026-05-05 15:07 -20.42899 -54.89064 8034 ft 351 kts 174°
2026-05-05 15:07 -20.45324 -54.88837 7281 ft 349 kts 174°
2026-05-05 15:08 -20.47744 -54.88604 6536 ft 349 kts 174°
2026-05-05 15:08 -20.50156 -54.88376 5754 ft 343 kts 174°
2026-05-05 15:08 -20.52473 -54.88225 5107 ft 324 kts 182°
2026-05-05 15:08 -20.54574 -54.88758 4692 ft 301 kts 202°
2026-05-05 15:09 -20.56573 -54.89151 4271 ft 287 kts 177°
2026-05-05 15:09 -20.58439 -54.88597 3882 ft 275 kts 148°
2026-05-05 15:09 -20.59788 -54.87229 3716 ft 266 kts 120°
2026-05-05 15:09 -20.60458 -54.85434 3500 ft 256 kts 95°
2026-05-05 15:10 -20.60408 -54.83631 3548 ft 234 kts 80°
2026-05-05 15:10 -20.60243 -54.81941 3527 ft 225 kts 81°
2026-05-05 15:10 -20.59854 -54.80368 3518 ft 217 kts 60°
2026-05-05 15:10 -20.59033 -54.79101 3540 ft 202 kts 44°
2026-05-05 15:11 -20.58015 -54.78062 3537 ft 203 kts 40°
2026-05-05 15:11 -20.56990 -54.77071 3582 ft 195 kts 39°
2026-05-05 15:11 -20.55987 -54.76105 3530 ft 188 kts 41°
2026-05-05 15:11 -20.55062 -54.75197 3545 ft 179 kts 40°
2026-05-05 15:12 -20.54127 -54.74303 3419 ft 185 kts 40°
2026-05-05 15:12 -20.53212 -54.73404 3224 ft 181 kts 40°
2026-05-05 15:12 -20.52329 -54.72557 2989 ft 157 kts 41°
2026-05-05 15:12 -20.51583 -54.71829 2773 ft 135 kts 38°
2026-05-05 15:13 -20.50922 -54.71190 2620 ft 129 kts 42°
2026-05-05 15:13 -20.50256 -54.70541 2467 ft 131 kts 38°
2026-05-05 15:13 -20.49577 -54.69889 2295 ft 132 kts 39°
2026-05-05 15:13 -20.48906 -54.69231 2119 ft 129 kts 39°
2026-05-05 15:14 -20.48241 -54.68601 1946 ft 127 kts 39°
2026-05-05 15:14 -20.47618 -54.67994 1836 ft 115 kts 40°
2026-05-05 15:14 -20.47131 -54.67526 1832 ft 67 kts 41°
2026-05-05 15:14 -20.46876 -54.67284 1834 ft 42 kts 44°
2026-05-05 15:15 -20.46669 -54.67080 1834 ft 39 kts 41°
2026-05-05 15:15 -20.46536 -54.66951 1832 ft 39 kts 42°
2026-05-05 15:15 -20.46328 -54.66752 1832 ft 41 kts 43°
2026-05-05 15:15 -20.46140 -54.66606 1832 ft 21 kts 344°
2026-05-05 15:16 -20.45995 -54.66665 1833 ft 24 kts 338°
2026-05-05 15:16 -20.45860 -54.66720 1833 ft 13 kts 333°
2026-05-05 15:16 -20.45839 -54.66818 1833 ft 17 kts 264°
2026-05-05 15:16 -20.45851 -54.66956 1833 ft 21 kts 265°
2026-05-05 15:17 -20.45866 -54.67112 1833 ft 15 kts 259°
2026-05-05 15:17 -20.45925 -54.67198 1833 ft 12 kts 286°
2026-05-05 15:17 -20.45860 -54.67196 1833 ft 13 kts 44°
2026-05-05 15:17 -20.45826 -54.67158 1833 ft 2 kts 75°
2026-05-05 15:18 -20.45841 -54.67137 1833 ft 0 kts 149°